Millbury, Ohio, United States (43447)
Lat: 41.57N, Lon: 83.42W
Wx Zone: OHZ006
Local Info
Past Weather Observations for Today

NOTE: This archive is for the closest National Weather Service station to Millbury. Information may differ from the station used for current weather conditions.

Click here for Long-term Archive

Time Weather Temperature Dewpoint Humidity Pressure Winds Precip Visibility
20:53
Overcast
Light Rain
55°F / 13°C 52°F / 11°C 88% 30.09 in
(1019 mb)
NW 4.6 mph
(NW 7 kph)
0.04 in
(1.02 mm)
8SM
19:53
Overcast
Light Rain
55°F / 13°C 52°F / 11°C 88% 30.09 in
(1019 mb)
WNW 6.9 mph
(WNW 11 kph)
0.09 in
(2.29 mm)
10SM
18:53
Overcast
Light Rain
55°F / 13°C 52°F / 11°C 88% 30.09 in
(1019 mb)
NW 8.1 mph
(NW 13 kph)
0.08 in
(2.03 mm)
9SM
17:53
Overcast
61°F / 16°C 52°F / 11°C 72% 30.09 in
(1019 mb)
NW 6.9 mph
(NW 11 kph)
- 10SM
16:53
Overcast
63°F / 17°C 52°F / 11°C 68% 30.09 in
(1019 mb)
W 4.6 mph
(W 7 kph)
- 10SM
15:53
Overcast
61°F / 16°C 52°F / 11°C 72% 30.09 in
(1019 mb)
S 4.6 mph
(S 7 kph)
- 10SM
14:53
Overcast
61°F / 16°C 50°F / 10°C 68% 30.12 in
(1020 mb)
SSW 5.8 mph
(SSW 9 kph)
- 10SM
13:53
Overcast
63°F / 17°C 48°F / 9°C 59% 30.15 in
(1021 mb)
SW 9.2 mph
(SW 15 kph)
- 10SM
12:53
Mostly Cloudy
61°F / 16°C 54°F / 12°C 77% 30.15 in
(1021 mb)
W 10.4 mph
(W 17 kph)
0.00 in
(0.00 mm)
10SM
11:53
Overcast
Light Rain
57°F / 14°C 52°F / 11°C 82% 30.18 in
(1022 mb)
SW 5.8 mph
(SW 9 kph)
0.04 in
(1.02 mm)
8SM
10:53
Overcast
61°F / 16°C 52°F / 11°C 72% 30.21 in
(1023 mb)
W 10.4 mph
(W 17 kph)
0.00 in
(0.00 mm)
10SM
09:53
Mostly Cloudy
Light Rain
59°F / 15°C 52°F / 11°C 77% 30.15 in
(1021 mb)
SE 6.9 mph
(SE 11 kph)
0.00 in
(0.00 mm)
10SM
08:53
Clear
57°F / 14°C 48°F / 9°C 72% 30.21 in
(1023 mb)
SW 5.8 mph
(SW 9 kph)
- 10SM
07:53
Clear
54°F / 12°C 46°F / 8°C 77% 30.21 in
(1023 mb)
S 5.8 mph
(S 9 kph)
- 10SM
06:53
Clear
48°F / 9°C 45°F / 7°C 87% 30.21 in
(1023 mb)
SSE 3.5 mph
(SSE 6 kph)
- 10SM
05:53
Clear
46°F / 8°C 43°F / 6°C 87% 30.21 in
(1023 mb)
SSE 3.5 mph
(SSE 6 kph)
- 10SM
04:53
Clear
48°F / 9°C 45°F / 7°C 87% 30.21 in
(1023 mb)
SW 3.5 mph
(SW 6 kph)
- 10SM
03:53
Clear
48°F / 9°C 45°F / 7°C 87% 30.21 in
(1023 mb)
Calm - 10SM
02:53
Clear
48°F / 9°C 45°F / 7°C 87% 30.21 in
(1023 mb)
Calm - 10SM
01:53
Clear
50°F / 10°C 45°F / 7°C 82% 30.21 in
(1023 mb)
Calm - 10SM
00:53
Clear
50°F / 10°C 45°F / 7°C 82% 30.21 in
(1023 mb)
Calm - 10SM
Time Weather Temperature Dewpoint Humidity Pressure Winds Precip Visibility


Weather for websites

WeatherForYou.com, LLC is not responsible for any damages or problems caused by this service. Current weather conditions are obtained from the closest station including government and personal stations which may have varying degrees of accuracy. Weather forecasts are derived from the NOAA NDFD. Like all things, this site belongs to Jesus Christ... He just trusts me to maintain it. If you have any questions or comments email webmaster@weatherforyou.com

Copyright © 2014, WeatherForYou.com LLC. All rights reserved.